Content
SEND FEEDBACK

Daily
Averages
Monthly
Summary
Mexico

PLAYA DEL CARMEN, QUINTANA ROO


Home > North America > Mexico > Quintana Roo
Elevation: 30 feet     Latitude: 20 38N     Longitude: 087 04W

WEATHER
 
SELECT A DAY
Number of Records: 204,286;   Date Range: 2/21/06 - 11/24/14
 
SHARE

PRINT THIS DATA

[ ← Previous Day ]
WEATHER ALMANAC - SEPTEMBER 15, 2013
[ Next Day → ]
[ °C ]   °F
Weather ElementAverageHighLow
Temperature80 °F95 °F (2:55 pm)73.4 °F (4:55 pm)
Dewpoint21.7 °F77 °F (9:55 am) (7:00 pm)
Humidity58.3 %94 % (4:55 pm)36 % (2:55 pm)
Barometer30.05 in30.10 in (8:35 pm)30.00 in (3:55 am)
Wind Speed5.4 mph17.3 mph (3:55 pm)
Wind Gust33.4 mph (3:15 pm)
Weather ElementAverage
Visibility10 mi
Wind DirectionENE (74.1 °)

Weather ElementTotal
Precipitation0.09 in
Cooling Degree Days19.2 (Base 65)
Growing Degree Days34.2 (Base 50)
Averaged from 71 records on September 15, 2013
WEATHER CONDITIONS BREAKOUT
WIND DIRECTION BREAKOUT
WEATHER BY HOUR - SEPTEMBER 15, 2013
[ °C ]   °F
Local TimeTemperatureDewpointHumidityBarometerVisibilityWind DirectionWind SpeedGust SpeedPrecipitationEventsConditions
12:35 AM77.0 °F0.0 °F30.01 in10.0 miCalmScattered Clouds
12:55 AM77.0 °F0.0 °F30.01 in10.0 miNNE (30°)3.5 mphClear
1:15 AM77.0 °F0.0 °F30.01 in10.0 miEast (80°)3.5 mphClear
1:35 AM77.0 °F0.0 °F30.01 in10.0 miENE (70°)3.5 mphClear
1:55 AM77.0 °F0.0 °F30.02 in10.0 miENE (60°)4.6 mphClear
2:15 AM77.0 °F0.0 °F30.02 in10.0 miENE (60°)3.5 mphClear
2:35 AM77.0 °F0.0 °F30.01 in10.0 miEast (90°)3.5 mphClear
2:55 AM77.0 °F0.0 °F30.01 in10.0 miCalmClear
3:15 AM77.0 °F0.0 °F30.01 in10.0 miCalmClear
3:35 AM77.0 °F0.0 °F30.01 in10.0 miCalmScattered Clouds
3:55 AM77.0 °F0.0 °F30.00 in10.0 miESE (110°)4.6 mphScattered Clouds
4:15 AM77.0 °F0.0 °F30.01 in10.0 miEast (80°)3.5 mphClear
4:35 AM77.0 °F0.0 °F30.01 in10.0 miENE (70°)4.6 mphClear
4:55 AM77.0 °F0.0 °F30.02 in10.0 miCalmClear
5:15 AM77.0 °F0.0 °F30.01 in10.0 miEast (90°)3.5 mphClear
5:35 AM77.0 °F0.0 °F30.02 in10.0 miENE (60°)3.5 mphClear
5:55 AM77.0 °F0.0 °F30.02 in10.0 miCalmClear
6:15 AM77.0 °F0.0 °F30.01 in10.0 miCalmClear
6:35 AM77.0 °F0.0 °F30.01 in10.0 miCalmClear
6:55 AM77.0 °F0.0 °F30.02 in10.0 miENE (60°)4.6 mphClear
7:15 AM77.0 °F0.0 °F30.02 in10.0 miNE (50°)3.5 mphClear
7:35 AM77.0 °F0.0 °F30.02 in10.0 miNE (50°)4.6 mphClear
7:55 AM77.0 °F0.0 °F30.03 in10.0 miNE (40°)3.5 mphClear
8:15 AM78.8 °F0.0 °F30.03 in10.0 miNE (50°)3.5 mphClear
8:35 AM80.6 °F0.0 °F30.04 in10.0 miNE (40°)4.6 mphClear
8:55 AM80.6 °F0.0 °F30.04 in10.0 miENE (60°)5.8 mphClear
9:15 AM82.4 °F0.0 °F30.05 in10.0 miENE (70°)4.6 mphClear
9:35 AM84.2 °F0.0 °F30.05 in10.0 miEast (90°)8.1 mphClear
9:55 AM86.0 °F77.0 °F74 %30.06 in10.0 miEast (100°)6.9 mphClear
10:15 AM87.8 °F73.4 °F62 %30.07 in10.0 miESE (110°)10.4 mphScattered Clouds
10:35 AM87.8 °F73.4 °F62 %30.07 in10.0 miEast (100°)11.5 mphScattered Clouds
10:55 AM87.8 °F73.4 °F62 %30.08 in10.0 miESE (110°)9.2 mphScattered Clouds
11:15 AM89.6 °F71.6 °F55 %30.08 in10.0 miEast (100°)5.8 mphScattered Clouds
11:35 AM89.6 °F71.6 °F55 %30.08 in10.0 miESE (110°)11.5 mph16.1 mphScattered Clouds
11:55 AM89.6 °F69.8 °F52 %30.08 in10.0 miESE (120°)11.5 mphScattered Clouds
12:15 PM89.6 °F69.8 °F52 %30.07 in10.0 miEast (90°)10.4 mph17.3 mphScattered Clouds
12:35 PM91.4 °F71.6 °F52 %30.06 in10.0 miEast (80°)9.2 mphScattered Clouds
12:55 PM91.4 °F69.8 °F49 %30.06 in10.0 miEast (80°)8.1 mphScattered Clouds
1:15 PM91.4 °F68.0 °F46 %30.06 in10.0 miEast (90°)11.5 mph17.3 mphScattered Clouds
1:35 PM91.4 °F68.0 °F46 %30.05 in10.0 miEast (100°)10.4 mphScattered Clouds
1:55 PM93.2 °F66.2 °F41 %30.04 in10.0 miENE (70°)11.5 mphScattered Clouds
2:15 PM93.2 °F66.2 °F41 %30.03 in10.0 miESE (110°)9.2 mphScattered Clouds
2:35 PM93.2 °F64.4 °F38 %30.03 in10.0 miENE (60°)9.2 mphScattered Clouds
2:55 PM95.0 °F64.4 °F36 %30.03 in10.0 miESE (110°)9.2 mphScattered Clouds
3:15 PM86.0 °F68.0 °F55 %30.04 in10.0 miEast (80°)16.1 mph33.4 mphMostly Cloudy
3:35 PM82.4 °F69.8 °F66 %30.04 in10.0 miEast (100°)16.1 mph25.3 mphMostly Cloudy
3:55 PM77.0 °F71.6 °F83 %30.05 in10.0 miESE (110°)17.3 mph26.5 mph0.02 inRainLight Rain
4:15 PM75.2 °F69.8 °F83 %30.05 in10.0 miSSE (150°)8.1 mph20.7 mphRainLight Rain
4:35 PM75.2 °F68.0 °F78 %30.09 in10.0 miSE (130°)15.0 mph21.9 mphRainRain
4:55 PM73.4 °F71.6 °F94 %30.08 in10.0 miSE (130°)8.1 mph19.6 mph0.02 inRainLight Rain
5:15 PM75.2 °F0.0 °F30.07 in10.0 miSouth (170°)5.8 mphScattered Clouds
5:35 PM73.4 °F0.0 °F30.05 in10.0 miCalmClear
5:55 PM73.4 °F0.0 °F30.06 in10.0 miSE (130°)4.6 mphClear
6:15 PM73.4 °F0.0 °F30.06 in10.0 miSSE (150°)5.8 mphClear
6:35 PM73.4 °F0.0 °F30.06 in10.0 miEast (100°)3.5 mphClear
6:55 PM75.2 °F0.0 °F30.07 in10.0 miNE (40°)6.9 mphRainLight Rain
7:15 PM75.2 °F0.0 °F30.07 in7.0 miCalm0.01 inRainRain
7:35 PM73.4 °F0.0 °F30.04 in10.0 miNorth (360°)5.8 mph0.02 inRainLight Rain
7:55 PM75.2 °F0.0 °F30.07 in10.0 miNE (50°)9.2 mph0.02 inMostly Cloudy
8:15 PM75.2 °F0.0 °F30.09 in10.0 miCalmOvercast
8:35 PM77.0 °F0.0 °F30.10 in10.0 miCalmOvercast
8:55 PM77.0 °F0.0 °F30.10 in10.0 miCalmMostly Cloudy
9:15 PM77.0 °F0.0 °F30.10 in10.0 miSouth (180°)4.6 mphMostly Cloudy
9:35 PM77.0 °F0.0 °F30.10 in10.0 miSSE (160°)6.9 mphScattered Clouds
9:55 PM77.0 °F0.0 °F30.10 in10.0 miSouth (190°)4.6 mphClear
10:15 PM77.0 °F0.0 °F30.10 in10.0 miEast (90°)3.5 mphClear
10:35 PM77.0 °F0.0 °F30.10 in10.0 miEast (90°)3.5 mphClear
10:55 PM77.0 °F0.0 °F30.09 in10.0 miCalmClear
11:15 PM77.0 °F0.0 °F30.09 in10.0 miCalmClear
11:35 PM75.2 °F0.0 °F30.08 in10.0 miCalmClear
11:55 PM75.2 °F0.0 °F30.07 in10.0 miCalmClear
Hourly data recorded from KPCM, located miles away from Playa del Carmen, Quintana Roo







STORIES FROM OUR PARTNERS